• In Belarus
  • List of Countries
  • For 7 days
  • Water Temperature
  • Satellite Maps
  • Weather Map
  • Weather Widgets
  • user-avatar
    Login

    Hourly Weather Lozy

    Today, 15 October, Monday

    Time Temperature Precipitation Wind Pressure Humidity
    00:00 +14°C° 0 mm 4 mps 751 mmHg 41%
    01:00 +14°C° 0 mm 3 mps 751 mmHg 41%
    02:00 +14°C° 0 mm 3 mps 751 mmHg 40%
    03:00 +14°C° 0 mm 4 mps 751 mmHg 39%
    04:00 +14°C° 0 mm 4 mps 751 mmHg 39%
    05:00 +14°C° 0 mm 4 mps 751 mmHg 39%
    06:00 +14°C° 0 mm 4 mps 751 mmHg 40%
    07:00 +13°C° 0 mm 4 mps 751 mmHg 42%
    08:00 +15°C° 0 mm 4 mps 751 mmHg 38%
    09:00 +17°C° 0 mm 5 mps 751 mmHg 34%
    10:00 +21°C° 0 mm 5 mps 752 mmHg 31%
    11:00 +22°C° 0 mm 5 mps 752 mmHg 30%
    12:00 +23°C° 0 mm 5 mps 752 mmHg 29%
    13:00 +25°C° 0 mm 4 mps 752 mmHg 29%
    14:00 +23°C° 0 mm 4 mps 751 mmHg 32%
    15:00 +22°C° 0 mm 3 mps 751 mmHg 36%
    16:00 +21°C° 0 mm 3 mps 751 mmHg 39%
    17:00 +20°C° 0 mm 3 mps 751 mmHg 43%
    18:00 +18°C° 0 mm 3 mps 751 mmHg 47%
    19:00 +17°C° 0 mm 3 mps 751 mmHg 51%
    20:00 +16°C° 0 mm 3 mps 751 mmHg 52%
    21:00 +16°C° 0 mm 2 mps 751 mmHg 54%
    22:00 +15°C° 0 mm 2 mps 751 mmHg 55%
    23:00 +15°C° 0 mm 2 mps 751 mmHg 55%

    Tomorrow, 16 October, Tuesday

    Time Temperature Precipitation Wind Pressure Humidity
    00:00 +15°C° 0 mm 2 mps 751 mmHg 55%
    01:00 +14°C° 0 mm 2 mps 751 mmHg 56%
    02:00 +14°C° 0 mm 2 mps 751 mmHg 55%
    03:00 +14°C° 0 mm 2 mps 751 mmHg 55%
    04:00 +13°C° 0 mm 2 mps 751 mmHg 55%
    05:00 +13°C° 0 mm 2 mps 751 mmHg 55%
    06:00 +13°C° 0 mm 2 mps 751 mmHg 56%
    07:00 +13°C° 0 mm 2 mps 752 mmHg 56%
    08:00 +15°C° 0 mm 2 mps 752 mmHg 52%
    09:00 +17°C° 0 mm 2 mps 752 mmHg 47%
    10:00 +19°C° 0 mm 2 mps 752 mmHg 43%
    11:00 +20°C° 0 mm 2 mps 752 mmHg 41%
    12:00 +21°C° 0 mm 2 mps 752 mmHg 40%
    13:00 +21°C° 0 mm 2 mps 752 mmHg 39%
    14:00 +21°C° 0 mm 2 mps 752 mmHg 42%
    15:00 +21°C° 0 mm 2 mps 752 mmHg 45%
    16:00 +21°C° 0 mm 1 mps 752 mmHg 48%
    17:00 +20°C° 0 mm 1 mps 752 mmHg 53%
    18:00 +18°C° 0 mm 1 mps 752 mmHg 57%
    19:00 +15°C° 0 mm 1 mps 752 mmHg 62%
    20:00 +15°C° 0 mm 1 mps 752 mmHg 64%
    21:00 +14°C° 0 mm 1 mps 753 mmHg 65%
    22:00 +14°C° 0 mm 1 mps 753 mmHg 67%
    23:00 +14°C° 0 mm 1 mps 753 mmHg 68%

    Day after tomorrow, 17 October, Wednesday

    Time Temperature Precipitation Wind Pressure Humidity
    00:00 +13°C° 0 mm 1 mps 753 mmHg 70%
    01:00 +13°C° 0 mm 1 mps 753 mmHg 71%
    02:00 +13°C° 0 mm 1 mps 753 mmHg 72%
    03:00 +13°C° 0 mm 1 mps 753 mmHg 73%
    04:00 +12°C° 0 mm 1 mps 752 mmHg 74%
    05:00 +12°C° 0 mm 1 mps 753 mmHg 74%
    06:00 +12°C° 0 mm 1 mps 753 mmHg 75%
    07:00 +12°C° 0 mm 1 mps 753 mmHg 75%
    08:00 +14°C° 0 mm 1 mps 753 mmHg 68%
    09:00 +16°C° 0 mm 1 mps 753 mmHg 60%
    10:00 +19°C° 0 mm 1 mps 753 mmHg 53%
    11:00 +21°C° 0 mm 1 mps 753 mmHg 50%
    12:00 +22°C° 0 mm 1 mps 753 mmHg 48%
    13:00 +23°C° 0 mm 1 mps 752 mmHg 45%
    14:00 +22°C° 0 mm 1 mps 752 mmHg 48%
    15:00 +22°C° 0 mm 1 mps 752 mmHg 51%
    16:00 +21°C° 0 mm 1 mps 752 mmHg 54%
    17:00 +20°C° 0 mm 1 mps 752 mmHg 59%
    18:00 +18°C° 0 mm 1 mps 752 mmHg 65%
    19:00 +15°C° 0 mm 2 mps 752 mmHg 71%
    20:00 +15°C° 0 mm 2 mps 752 mmHg 73%
    21:00 +14°C° 0 mm 1 mps 752 mmHg 74%
    22:00 +14°C° 0 mm 1 mps 752 mmHg 76%
    23:00 +14°C° 0 mm 1 mps 752 mmHg 77%

    18 October, Thursday

    Time Temperature Precipitation Wind Pressure Humidity
    00:00 +13°C° 0 mm 1 mps 752 mmHg 77%
    01:00 +13°C° 0 mm 1 mps 752 mmHg 78%
    02:00 +13°C° 0 mm 1 mps 752 mmHg 79%
    03:00 +12°C° 0 mm 1 mps 752 mmHg 80%
    04:00 +12°C° 0 mm 1 mps 752 mmHg 81%
    05:00 +12°C° 0 mm 1 mps 752 mmHg 81%
    06:00 +12°C° 0 mm 1 mps 752 mmHg 82%
    07:00 +12°C° 0 mm 1 mps 752 mmHg 83%
    08:00 +14°C° 0 mm 1 mps 752 mmHg 76%
    09:00 +16°C° 0 mm 1 mps 752 mmHg 68%
    10:00 +19°C° 0 mm 1 mps 753 mmHg 61%
    11:00 +20°C° 0 mm 1 mps 752 mmHg 58%
    12:00 +20°C° 0 mm 1 mps 752 mmHg 55%
    13:00 +21°C° 0 mm 1 mps 752 mmHg 53%
    14:00 +21°C° 0 mm 1 mps 752 mmHg 55%
    15:00 +20°C° 0 mm 1 mps 752 mmHg 58%
    16:00 +20°C° 0 mm 1 mps 752 mmHg 60%
    17:00 +19°C° 0 mm 1 mps 752 mmHg 66%
    18:00 +16°C° 0 mm 1 mps 752 mmHg 72%
    19:00 +14°C° 0 mm 1 mps 752 mmHg 77%
    20:00 +14°C° 0 mm 1 mps 753 mmHg 79%
    21:00 +14°C° 0 mm 1 mps 753 mmHg 81%
    22:00 +13°C° 0 mm 1 mps 753 mmHg 83%
    23:00 +13°C° 0 mm 1 mps 753 mmHg 85%

    19 October, Friday

    Time Temperature Precipitation Wind Pressure Humidity
    00:00 +12°C° 0 mm 1 mps 753 mmHg 87%
    01:00 +12°C° 0 mm 1 mps 753 mmHg 88%
    02:00 +12°C° 0 mm 1 mps 753 mmHg 90%
    03:00 +11°C° 0 mm 1 mps 753 mmHg 92%
    04:00 +11°C° 0 mm 1 mps 753 mmHg 93%
    05:00 +11°C° 0 mm 1 mps 753 mmHg 94%
    06:00 +11°C° 0 mm 1 mps 754 mmHg 94%
    07:00 +11°C° 0 mm 1 mps 754 mmHg 94%
    08:00 +12°C° 0 mm 2 mps 754 mmHg 88%
    09:00 +13°C° 0 mm 2 mps 754 mmHg 81%
    10:00 +15°C° 0 mm 2 mps 754 mmHg 74%
    11:00 +16°C° 0 mm 2 mps 754 mmHg 71%
    12:00 +16°C° 0 mm 2 mps 754 mmHg 68%
    13:00 +17°C° 0 mm 3 mps 754 mmHg 65%
    14:00 +17°C° 0 mm 3 mps 754 mmHg 65%
    15:00 +16°C° 0 mm 2 mps 754 mmHg 65%
    16:00 +16°C° 0 mm 2 mps 754 mmHg 65%
    17:00 +15°C° 0 mm 2 mps 754 mmHg 68%
    18:00 +14°C° 0 mm 2 mps 754 mmHg 70%
    19:00 +12°C° 0 mm 2 mps 755 mmHg 72%
    20:00 +12°C° 0 mm 2 mps 755 mmHg 73%
    21:00 +10°C° 0 mm 2 mps 755 mmHg 74%
    22:00 +9°C° 0 mm 2 mps 755 mmHg 74%
    23:00 +8°C° 0 mm 2 mps 756 mmHg 77%

    20 October, Saturday

    Time Temperature Precipitation Wind Pressure Humidity
    00:00 +8°C° 0 mm 2 mps 756 mmHg 80%
    01:00 +7°C° 0 mm 2 mps 756 mmHg 83%
    02:00 +6°C° 0 mm 2 mps 756 mmHg 85%
    03:00 +6°C° 0 mm 2 mps 756 mmHg 88%
    04:00 +6°C° 0 mm 2 mps 756 mmHg 91%
    05:00 +5°C° 0 mm 2 mps 757 mmHg 92%
    06:00 +5°C° 0 mm 2 mps 757 mmHg 93%
    07:00 +5°C° 0 mm 2 mps 757 mmHg 95%
    08:00 +7°C° 0 mm 2 mps 757 mmHg 86%
    09:00 +8°C° 0 mm 3 mps 758 mmHg 77%
    10:00 +10°C° 0 mm 3 mps 758 mmHg 68%
    11:00 +10°C° 0 mm 3 mps 758 mmHg 64%
    12:00 +11°C° 0 mm 3 mps 758 mmHg 60%
    13:00 +11°C° 0 mm 3 mps 758 mmHg 56%
    14:00 +11°C° 0 mm 3 mps 758 mmHg 57%
    15:00 +11°C° 0 mm 3 mps 758 mmHg 58%
    16:00 +11°C° 0 mm 3 mps 758 mmHg 59%
    17:00 +10°C° 0 mm 2 mps 758 mmHg 64%
    18:00 +9°C° 0 mm 2 mps 758 mmHg 68%
    19:00 +9°C° 0 mm 1 mps 759 mmHg 73%
    20:00 +8°C° 0 mm 1 mps 759 mmHg 75%
    21:00 +8°C° 0 mm 1 mps 759 mmHg 77%
    22:00 +8°C° 0 mm 1 mps 759 mmHg 78%
    23:00 +7°C° 0 mm 1 mps 759 mmHg 80%
    Show more